Regional Weather Roundup
Issued by NWS

Home | Current Version | Previous Version | Graphics & Text | Print | Product List | Glossary On
Versions: 1 2 3 4 5 6 7 8 9 10 11 12 13 14 15 16 17 18 19 20 21 22 23 24 25 26 27 28 29 30 31 32 33 34 35 36 37 38 39 40 41 42 43 44 45 46 47 48 49 50
437
ASUS43 KDMX 241506
RWRIA

WEATHER ROUNDUP FOR IOWA
NATIONAL WEATHER SERVICE DES MOINES IA
900 AM CST FRI FEB 24 2017

NOTE: "FAIR" INDICATES FEW OR NO CLOUDS BELOW 12,000 FEET WITH NO
SIGNIFICANT WEATHER AND/OR OBSTRUCTIONS TO VISIBILITY.

* - THESE STATIONS ARE NOT NWS STATIONS...THUS NOT UNDER NWS
QUALITY CONTROL.  THEY ALSO DO NOT REPORT WEATHER SUCH
AS PRECIPITATION OR FOG.

IAZ001>003-012>014-020>022-031>034-043>046-241600-
   NORTHWEST IOWA

CITY           SKY/WX    TMP DP  RH WIND       PRES   REMARKS
CARROLL *      MIX PCPN  27  27 100 N31G38    29.71R VSB 1/2 WCI  10
CHEROKEE *     CLOUDY    22  21  96 N17G30    29.82R WCI   8
DENISON *      HVY RAIN  23  21  93 N22G33    29.72S VSB 1/2 WCI   8
LE MARS *      MIX PCPN  23  19  86 N20G30    29.87R WCI   8
ORANGE CITY *    N/A     21  21 100 N21G29    29.84S WCI   6
SHELDON *      SNOW      21  21 100 N28G33    29.83R VSB 1/2 WCI   3
SIOUX CITY     FOG       25  22  88 N26G35    29.85R VSB 1/2 WCI   9
SPENCER        FOG       22  19  89 N24G35    29.81R VSB 1/4 WCI   5
STORM LAKE *   SNOW      21  19  93 N30       29.76R VSB 1/4 WCI   3
$$

IAZ055>058-069>071-079>083-090>094-241600-
   SOUTHWEST IOWA

CITY           SKY/WX    TMP DP  RH WIND       PRES   REMARKS
ATLANTIC *     CLOUDY    28  27  93 N24G35    29.70R FOG     WCI  14
CLARINDA *     CLOUDY    32  30  93 N20G30    29.70R WCI  20
COUNCIL BLFS * PTSUNNY   25  25 100 N22G38    29.74R WCI  10
CRESTON *      MIX PCPN  32  30  93 N17G32    29.64R WCI  21
HARLAN  *      LGT RAIN  27  27 100 N22G30    29.73S WCI  12
LAMONI         CLOUDY    35  33  92 N12       29.59R WCI  27
RED OAK *      LGT RAIN  30  28  93 N24G35    29.71R WCI  16
SHENANDOAH *   CLOUDY    32  28  86 N20G35    29.72R WCI  20
$$

IAZ047>049-059>061-072>074-084-241600-
   CENTRAL IOWA

CITY           SKY/WX    TMP DP  RH WIND       PRES   REMARKS
AMES           LGT SNOW  31  30  96 N21G26    29.63S VSB 3/4 WCI  18
ANKENY *       CLOUDY    32  30  93 N17G26    29.63R FOG     WCI  21
BOONE *        RAIN      28  28 100 N25G32    29.63S WCI  14
CHARITON *     PTSUNNY   34  32  93 N15G23    29.57R WCI  24
DES MOINES     LGT SNOW  33  31  92 N17G23    29.62R FOG     WCI  22
GRINNELL*      LGT RAIN  32  32  99 N16       29.59R WCI  21
KNOXVILLE *    PTSUNNY   34  32  93 N10G17    29.57R FOG     WCI  26
MARSHALLTOWN   FRZ RAIN  32  31  96 N16       29.60R FOG     WCI  21
NEWTON *       PTSUNNY   32  32 100 N23       29.58R FOG     WCI  19
PELLA *        LGT RAIN  33  33  97 N9G20     29.58S WCI  26
PERRY *        CLOUDY    30  28  94 N18       29.67R FOG     WCI  18
$$

IAZ004>006-015-016-023>025-035-036-241600-
   NORTH CENTRAL IOWA

CITY           SKY/WX    TMP DP  RH WIND       PRES   REMARKS
ALGONA *       SNOW      23  23 100 MISG      29.74R VSB<1/4
CLARION *      FOG       27  27 100 N23G33    29.68R VSB 1/4 WCI  12
ESTHERVILLE    FOG       20  19  96 N28G36    29.80R VSB 3/4 WCI   2
FORT DODGE *   CLOUDY    27  21  80 N17G28    29.71S VSB 1/2 WCI  14
MASON CITY     FRZ RAIN  27  27 100 N23G31    29.70R FOG     WCI  12
FOREST CITY *  LGT SNOW  28  27  93 N21       29.72R WCI  15
WEBSTER CITY * HVY RAIN  28  27  93 N28G35    29.66R VSB 3/4 WCI  13
IOWA FALLS *   LGT SNOW  31  28  91 N14G23    29.64F VSB 1   WCI  20
$$

IAZ007>011-017>019-026>030-037>042-050>054-066-241600-
   NORTHEAST IOWA

CITY           SKY/WX    TMP DP  RH WIND       PRES   REMARKS
CEDAR RAPIDS   LGT RAIN  33  33 100 N17       29.53R FOG     WCI  22
CHARLES CITY * HVY RAIN  28  28 100 N18G28    29.65R VSB 1/2 WCI  16
CLINTON *      MIX PCPN  36  36 100 NE21      29.46S FOG     WCI  25
DECORAH *      LGT RAIN  30  28  93 N13G22    29.61R WCI  20
DUBUQUE        CLOUDY    31  31 100 NE23G31   29.49S FOG     WCI  18
MONTICELLO *   MIX PCPN  32  32 100 NE13      29.52R WCI  22
OELWEIN *      CLOUDY    30  30 100 NE21G28   29.58R WCI  17
WATERLOO       CLOUDY    32  28  85 N18G29    29.61R FOG     WCI  20
$$

IAZ064-065-067-068-078-241600-
   EAST CENTRAL IOWA

CITY           SKY/WX    TMP DP  RH WIND       PRES   REMARKS
DAVENPORT      CLOUDY    37  36  96 NE16      29.46R FOG     WCI  28
IOWA CITY      CLOUDY    36  34  92 N12       29.53R FOG     WCI  28
MUSCATINE *    FOG       37  37 100 N12       29.50R VSB 1   WCI  30
QUAD CITIES    CLOUDY    41  37  86 NE10      29.44S FOG
$$

IAZ062-063-075>077-085>089-095>099-241600-
   SOUTHEAST IOWA

CITY           SKY/WX    TMP DP  RH WIND       PRES   REMARKS
BURLINGTON     FOG       41  41 100 W12       29.48R VSB 3/4
FAIRFIELD *    CLOUDY    37  36  93 N13       29.52R FOG     WCI  29
KEOKUK *       CLOUDY    41  39  93 W13       29.50R FOG
OTTUMWA        CLOUDY    36  36 100 N16       29.54R FOG     WCI  26
WASHINGTON *   CLOUDY    36  36 100 N13       29.52R FOG     WCI  27
$$

ABBREVIATIONS USED IN REMARKS
   TC - TEMPERATURES IN CELSIUS
  WCI - WIND CHILL INDEX
   HX - HEAT INDEX
  VSB - VISIBILITY
$$





USA.gov is the U.S. government's official web portal to all federal, state and local government web resources and services.